* Astronomy

Members Login
Username 
 
Password 
    Remember Me  
Post Info TOPIC: Proton-K SL-12 R/B Re-entry


L

Posts: 131433
Date:
Proton-K SL-12 R/B Re-entry
Permalink  
 


A Proton-K SL-12 R/B Auxiliary Motor that was launched in December, 2001, from the Baikonur Cosmodrome for the  Glonass 1/3, 1/5, 1/6 (Cosmos 2380/81/82) Mission is predicted to re-enter the Earths atmosphere on the 26th August 2008 @ 10:05 GMT ± 3 hours.

scrsav008bmc3.jpg
Expand (100kb, 854 x 554)

TLE Data
SL-12 R/B(AUX MOTOR)
1 26993U 01053G 08239.18500276 .91891888 77561-6 89235-3 0 5821
2 26993 063.6864 108.7064 0398720 205.5780 152.7343 15.68869707107354
1 26993U 01053G 08239.20638571 .86502368 11005-5 10193-2 0 5815
2 26993 063.6930 108.6328 0378359 204.7091 274.3527 15.72101891107355
1 26993U 01053G 08239.14748911 .79872781 18679-6 85658-3 0 5802
2 26993 063.6920 108.8585 0428611 204.8184 302.0535 15.61085928107349
1 26993U 01053G 08239.14146566 .77091022 20967-6 11222-2 0 5795
2 26993 063.6985 108.8613 0424805 204.5169 268.3678 15.59450754107345
1 26993U 01053G 08239.13891325 .76488138 15207-6 11249-2 0 5780
2 26993 063.7057 108.8713 0427155 204.3329 254.1618 15.58814407107349


Predicted Decay Location     63.1° S, 239.4° E
Inclination    63.7°
Revolution Number    10739


__________________
Page 1 of 1  sorted by
 
Quick Reply

Please log in to post quick replies.



Create your own FREE Forum
Report Abuse
Powered by ActiveBoard